Dewpoint
53 53 53 54 55 56 57 56 57 57 57 57 57 57 58 59 57 44 21 32 37 58 57 35 34 35 29 20 17 16 12 11 12 14 14 16 16 17 18 16 16 17 17 19 21
53 54 55 54 55 55 56 57 57 57 57 57 57 58 58 58 29 25 45 53 55 59 33 29 29 23 18 19 18 14 15 11 12 16 17 17 17 17 16 16 17 18 19 20 21
53 54 55 55 55 56 56 57 57 57 57 57 57 57 58 55 23 22 52 59 58 55 37 32 26 19 19 19 19 14 15 16 15 19 19 18 17 17 16 15 18 19 20 21 23
54 54 54 55 55 56 56 56 56 56 57 57 57 58 58 32 19 22 60 60 59 41 29 24 22 21 20 18 21 15 18 20 21 20 20 19 18 15 17 16 19 21 22 22 23
53 54 54 55 55 56 56 56 56 56 56 57 57 58 43 26 24 25 60 48 33 27 25 24 22 22 19 19 19 21 21 22 23 20 20 19 15 15 16 18 20 23 25 25 26
53 53 54 54 55 56 56 56 56 55 56 57 57 58 29 23 26 28 29 30 30 26 24 24 23 23 23 22 22 24 23 23 20 18 18 17 15 16 18 21 23 26 26 26 27
53 53 54 54 55 55 56 56 55 55 55 57 58 49 28 24 36 28 29 29 30 26 23 25 25 24 25 23 25 24 18 16 17 16 17 20 15 15 21 23 25 25 26 27 28
53 53 53 54 54 55 56 55 55 55 55 57 57 42 30 38 37 28 28 23 24 25 25 26 27 26 26 26 22 18 19 12 17 16 16 20 13 19 22 24 24 26 28 30 33
53 53 53 54 54 55 55 55 55 55 56 55 39 31 26 39 25 27 26 22 23 24 26 25 27 26 23 18 17 19 14 16 17 19 18 19 18 21 24 25 27 28 35 37 40
53 53 53 54 54 55 54 53 55 53 50 46 38 27 26 24 25 26 26 25 23 22 22 23 23 21 20 16 12 16 16 17 18 17 20 19 20 22 23 25 26 36 39 41 42
53 53 53 54 54 54 46 35 33 31 33 30 30 28 28 30 24 21 25 23 22 24 20 22 15 14 19 21 20 19 19 19 20 21 21 22 23 23 24 26 29 39 41 42 43
52 53 53 54 54 53 44 35 32 33 31 29 28 30 32 32 28 23 24 21 21 19 21 18 18 19 19 19 20 20 20 20 21 21 22 23 22 23 25 25 39 41 41 42 42
52 53 53 54 53 46 38 37 39 34 31 30 30 28 27 31 27 23 22 21 19 19 19 18 15 19 19 19 20 21 21 21 21 23 23 23 17 20 22 30 39 41 42 42 43
52 53 53 53 44 39 36 40 37 35 34 32 29 26 22 22 19 21 22 21 20 18 19 19 19 18 18 19 21 21 22 22 23 21 16 22 9 18 22 29 37 40 41 42 43
52 53 53 51 41 36 39 40 39 42 27 31 24 21 18 17 18 19 22 21 19 19 21 19 19 19 20 21 24 22 24 24 24 22 22 17 17 21 28 24 25 38 41 42 43
52 52 52 45 43 40 39 41 44 35 26 21 16 14 16 24 24 26 23 25 23 21 23 20 22 21 22 24 25 26 24 24 24 21 17 21 22 17 20 23 25 37 41 40 38
51 51 48 42 37 36 40 40 34 28 25 18 16 17 24 24 25 28 27 27 25 24 24 25 23 24 25 23 26 26 26 20 15 13 12 25 21 19 25 26 32 39 39 38 37
51 50 48 44 44 42 41 37 31 24 19 19 18 23 23 26 26 28 27 25 28 25 25 26 18 24 25 25 25 26 25 20 16 14 15 21 20 20 32 39 41 42 42 41 36
49 51 48 44 44 40 36 29 24 24 23 19 20 19 21 23 25 27 26 26 28 29 26 25 24 26 26 28 27 25 24 25 28 25 23 18 23 26 33 39 39 38 38 37 37
46 48 42 44 43 42 36 33 28 29 28 20 20 23 21 22 25 26 26 28 29 30 31 30 26 29 28 28 27 26 26 27 30 24 17 14 19 18 25 32 30 36 36 38 41
45 43 43 42 45 41 33 33 31 29 32 25 21 23 23 25 27 26 26 29 33 33 34 31 30 26 29 26 23 24 26 28 30 31 25 17 14 28 30 30 31 34 36 39 39
44 37 43 40 33 32 28 29 34 31 34 32 29 26 27 29 29 28 28 29 37 34 31 35 34 27 24 27 30 30 29 30 33 27 31 32 28 28 31 33 34 32 36 38 39
41 41 43 39 29 28 32 30 32 32 32 31 31 33 33 30 32 30 32 36 37 35 34 36 34 28 19 22 29 24 27 28 31 32 29 27 24 32 32 32 33 36 37 40 39
38 30 33 35 35 33 32 33 31 33 32 33 33 34 33 31 33 31 30 33 36 33 38 39 37 30 23 20 26 27 28 28 32 32 27 27 27 29 31 34 38 39 40 38 39
37 36 37 27 26 34 33 34 32 33 34 34 33 33 32 32 30 30 32 31 32 35 36 36 33 33 30 27 28 28 29 29 29 29 31 29 29 31 36 40 42 42 40 38 38
34 33 38 34 35 33 35 34 33 33 33 32 33 32 32 31 29 27 31 30 29 33 33 35 32 31 29 29 31 31 30 29 31 31 31 32 32 41 42 41 42 42 39 38 37
44 43 40 31 33 30 33 33 34 34 34 34 33 32 31 31 34 33 34 35 34 33 33 36 35 33 24 30 28 26 26 28 29 33 35 33 35 39 38 39 39 39 39 39 37
Lifted_Index
14 14 14 14 13 13 12 12 12 12 12 12 12 12 11 11 11 11 11 11 11 11 10 11 11 11 11 11 10 9 7 6 7 8 10 11 11 11 11 10 10 10 11 11 11
14 14 14 13 13 13 12 12 12 12 12 12 12 12 11 11 11 12 12 12 11 10 11 11 11 11 10 10 10 9 8 8 9 10 11 11 11 11 10 10 10 10 11 11 11
14 14 14 13 13 13 13 12 12 12 12 12 12 12 11 11 11 12 12 11 11 10 11 11 11 10 10 10 10 9 9 10 10 11 11 11 11 10 10 10 10 10 11 11 11
14 14 14 13 13 13 13 12 12 12 12 11 11 11 11 11 11 11 12 11 11 11 11 11 10 10 9 9 9 9 10 10 10 10 10 10 10 10 10 10 10 10 10 10 10
14 14 14 14 13 13 13 12 12 12 11 11 11 11 11 11 11 11 12 12 12 11 11 11 10 10 9 9 9 9 10 10 10 10 10 9 9 9 9 10 10 10 10 9 9
14 14 14 14 13 13 13 12 12 12 11 11 10 11 11 11 11 12 12 12 11 11 11 11 10 10 9 9 9 9 9 9 10 9 9 9 8 8 9 9 9 9 9 9 9
14 14 13 13 13 13 13 12 12 12 11 11 10 10 11 11 11 11 11 11 11 11 11 11 10 10 9 9 9 8 8 8 8 9 9 8 7 7 8 9 8 8 8 8 8
14 13 13 13 13 12 12 12 12 12 11 11 10 10 10 10 11 11 11 11 11 11 11 11 10 10 9 8 8 7 6 6 7 8 8 7 6 6 8 8 8 8 8 8 7
14 13 13 12 12 11 11 11 11 11 11 10 10 10 10 10 10 11 11 11 11 10 10 10 10 9 8 7 6 5 5 4 5 7 8 6 5 6 7 7 7 7 7 6 6
14 13 12 12 11 10 9 9 10 10 10 10 9 9 10 10 10 10 10 10 10 10 9 9 9 8 7 6 5 5 4 4 5 7 7 6 5 6 7 7 7 6 6 5 5
13 13 12 11 10 9 9 9 9 9 9 9 9 9 9 9 9 10 10 10 9 9 9 8 7 7 7 7 6 6 6 5 6 8 7 6 6 6 7 7 6 5 5 5 5
13 13 12 10 9 9 9 9 9 8 8 8 9 9 9 9 9 9 9 9 9 8 8 7 7 7 8 8 8 7 6 6 7 8 7 6 6 6 7 7 6 5 5 5 5
13 12 11 9 9 9 9 9 9 8 7 7 8 8 8 8 8 9 9 9 8 8 8 7 7 7 8 8 7 7 6 6 7 7 7 6 5 6 7 6 5 4 4 4 4
12 11 10 9 8 8 9 9 8 7 6 6 7 8 8 8 8 8 9 9 8 8 8 7 7 7 7 7 7 6 6 7 6 6 5 4 4 5 6 5 4 3 3 3 3
11 10 9 8 8 8 9 9 8 5 4 5 7 7 7 8 8 8 8 8 8 8 8 7 7 7 7 7 7 6 6 7 6 5 4 4 4 4 5 5 4 3 2 3 3
10 10 9 8 8 8 8 8 6 4 4 5 6 7 7 7 8 8 8 8 8 7 7 7 8 7 7 7 6 6 6 5 5 4 3 4 4 4 5 5 4 3 2 2 3
9 8 8 7 7 8 8 7 5 4 5 6 6 6 6 6 7 8 8 8 8 7 7 7 7 7 7 6 6 5 5 3 2 2 2 4 4 4 4 4 3 2 1 2 3
8 7 7 7 7 7 7 6 5 6 6 7 6 6 6 6 7 8 8 8 8 7 6 6 6 6 6 5 5 5 4 3 2 1 2 3 4 4 3 2 1 1 1 2 3
7 6 6 6 7 7 7 6 6 7 7 7 6 6 6 7 7 7 7 7 7 7 6 5 5 6 6 5 5 5 4 4 3 2 2 3 3 3 2 1 0 0 1 2 2
7 5 5 6 7 7 6 6 7 7 7 7 6 7 7 7 7 7 7 7 7 7 6 6 5 6 5 5 5 4 4 4 3 2 1 2 3 2 2 1 0 1 1 2 2
7 6 5 6 6 6 6 7 7 7 7 7 7 7 7 7 7 7 6 6 6 6 6 6 5 5 5 5 5 5 4 3 2 1 1 1 2 2 1 1 1 1 1 1 2
7 6 6 6 6 6 7 7 8 8 8 8 7 7 7 7 7 6 6 6 6 6 6 6 5 4 4 5 5 5 4 3 2 1 1 1 1 1 0 0 1 1 1 1 1
7 7 7 7 7 7 7 8 8 8 8 8 8 7 7 7 7 7 6 6 6 6 6 6 5 4 4 5 5 5 4 3 2 1 1 1 0 0 -0 0 1 1 0 0 1
8 8 8 8 8 8 8 8 8 9 9 8 8 8 7 7 7 7 7 7 7 7 6 6 5 4 4 5 5 4 3 2 2 1 1 0 -0 -0 -0 0 0 0 0 0 0
8 8 8 9 9 9 8 8 8 8 9 9 8 8 8 7 7 7 7 7 7 7 7 6 5 5 5 5 4 3 2 2 1 1 0 0 -0 -0 -0 0 1 0 0 1 1
8 9 9 9 9 9 9 9 9 9 9 9 9 9 9 8 8 8 8 8 8 8 7 7 6 6 5 4 4 3 2 1 1 0 0 -0 -0 0 0 1 1 1 1 1 1
9 9 9 9 9 9 10 10 9 10 10 9 9 9 9 9 9 9 9 9 8 8 8 7 6 5 4 4 3 2 2 1 1 0 -0 -0 0 0 1 1 1 1 1 2 2